When you browse on this site, cookies collect data to enhance your experience and personalize the content and advertising you see.
Visit our Privacy Policy to learn more. By continuing to use the site, you agree to this use of cookies and data.
EN

Hourly Weather Trinidad

Today, 9 July, Thursday

Time Temperature Precipitation Wind Pressure Humidity
00:00 +17°C° 0 mm 2 mps 747 mmHg 83%
01:00 +17°C° 0 mm 2 mps 747 mmHg 81%
02:00 +17°C° 0 mm 2 mps 747 mmHg 80%
03:00 +17°C° 0 mm 2 mps 747 mmHg 79%
04:00 +17°C° 0 mm 2 mps 747 mmHg 77%
05:00 +17°C° 0 mm 2 mps 747 mmHg 76%
06:00 +17°C° 0 mm 2 mps 747 mmHg 75%
07:00 +17°C° 0 mm 2 mps 748 mmHg 75%
08:00 +17°C° 0 mm 2 mps 748 mmHg 75%
09:00 +18°C° 0 mm 2 mps 749 mmHg 73%
10:00 +18°C° 0 mm 3 mps 749 mmHg 72%
11:00 +19°C° 0 mm 3 mps 750 mmHg 71%
12:00 +19°C° 0 mm 2 mps 749 mmHg 70%
13:00 +20°C° 0 mm 2 mps 749 mmHg 68%
14:00 +20°C° 0 mm 2 mps 748 mmHg 67%
15:00 +20°C° 0 mm 2 mps 748 mmHg 67%
16:00 +20°C° 0 mm 2 mps 747 mmHg 68%
17:00 +21°C° 0 mm 1 mps 747 mmHg 68%
18:00 +21°C° 0 mm 1 mps 747 mmHg 71%
19:00 +20°C° 0 mm 1 mps 748 mmHg 73%
20:00 +18°C° 0 mm 2 mps 748 mmHg 75%
21:00 +19°C° 0 mm 1 mps 748 mmHg 77%
22:00 +18°C° 0 mm 1 mps 748 mmHg 78%
23:00 +18°C° 0 mm 1 mps 748 mmHg 80%

Tomorrow, 10 July, Friday

Time Temperature Precipitation Wind Pressure Humidity
00:00 +18°C° 0 mm 1 mps 748 mmHg 80%
01:00 +18°C° 0 mm 1 mps 747 mmHg 79%
02:00 +18°C° 0 mm 1 mps 747 mmHg 79%
03:00 +18°C° 0 mm 1 mps 747 mmHg 80%
04:00 +16°C° 0 mm 1 mps 747 mmHg 80%
05:00 +16°C° 0 mm 1 mps 746 mmHg 81%
06:00 +18°C° 0 mm 1 mps 747 mmHg 80%
07:00 +18°C° 0 mm 1 mps 747 mmHg 79%
08:00 +19°C° 0 mm 1 mps 747 mmHg 77%
09:00 +20°C° 0 mm 0 mps 747 mmHg 69%
10:00 +23°C° 0 mm 0 mps 747 mmHg 62%
11:00 +27°C° 0 mm 0 mps 748 mmHg 54%
12:00 +27°C° 0 mm 0 mps 747 mmHg 52%
13:00 +30°C° 0 mm 1 mps 746 mmHg 51%
14:00 +31°C° 0 mm 1 mps 745 mmHg 50%
15:00 +30°C° 0 mm 1 mps 745 mmHg 54%
16:00 +29°C° 0 mm 1 mps 744 mmHg 58%
17:00 +29°C° 0 mm 1 mps 744 mmHg 62%
18:00 +27°C° 0 mm 1 mps 744 mmHg 69%
19:00 +25°C° 0 mm 1 mps 744 mmHg 75%
20:00 +23°C° 0 mm 1 mps 744 mmHg 82%
21:00 +23°C° 0 mm 1 mps 744 mmHg 82%
22:00 +23°C° 0 mm 1 mps 744 mmHg 83%
23:00 +22°C° 0 mm 1 mps 745 mmHg 83%

Day after tomorrow, 11 July, Saturday

Time Temperature Precipitation Wind Pressure Humidity
00:00 +22°C° 0 mm 1 mps 744 mmHg 84%
01:00 +22°C° 0 mm 1 mps 744 mmHg 85%
02:00 +22°C° 0 mm 1 mps 744 mmHg 86%
03:00 +22°C° 0 mm 1 mps 744 mmHg 87%
04:00 +21°C° 0 mm 1 mps 744 mmHg 88%
05:00 +21°C° 0 mm 1 mps 744 mmHg 90%
06:00 +22°C° 0 mm 1 mps 744 mmHg 87%
07:00 +23°C° 0 mm 1 mps 745 mmHg 85%
08:00 +23°C° 0 mm 1 mps 745 mmHg 83%
09:00 +26°C° 0 mm 1 mps 745 mmHg 73%
10:00 +29°C° 0 mm 1 mps 746 mmHg 64%
11:00 +31°C° 0 mm 2 mps 746 mmHg 55%
12:00 +32°C° 0 mm 2 mps 745 mmHg 52%
13:00 +34°C° 0 mm 2 mps 745 mmHg 48%
14:00 +35°C° 0 mm 3 mps 744 mmHg 45%
15:00 +34°C° 0 mm 2 mps 744 mmHg 49%
16:00 +32°C° 0 mm 2 mps 743 mmHg 53%
17:00 +32°C° 0 mm 1 mps 743 mmHg 57%
18:00 +30°C° 0 mm 1 mps 743 mmHg 63%
19:00 +28°C° 0 mm 1 mps 743 mmHg 69%
20:00 +26°C° 0 mm 1 mps 743 mmHg 75%
21:00 +26°C° 0 mm 1 mps 743 mmHg 76%
22:00 +25°C° 0 mm 1 mps 743 mmHg 77%
23:00 +25°C° 0 mm 1 mps 743 mmHg 78%

12 July, Sunday

Time Temperature Precipitation Wind Pressure Humidity
00:00 +25°C° 0 mm 1 mps 743 mmHg 78%
01:00 +24°C° 0 mm 1 mps 743 mmHg 79%
02:00 +24°C° 0 mm 1 mps 743 mmHg 80%
03:00 +24°C° 0 mm 1 mps 743 mmHg 81%
04:00 +23°C° 0 mm 1 mps 743 mmHg 82%
05:00 +23°C° 0 mm 1 mps 742 mmHg 83%
06:00 +24°C° 0 mm 1 mps 743 mmHg 82%
07:00 +24°C° 0 mm 1 mps 743 mmHg 80%
08:00 +25°C° 0 mm 1 mps 744 mmHg 79%
09:00 +27°C° 0 mm 1 mps 744 mmHg 70%
10:00 +29°C° 0 mm 2 mps 744 mmHg 62%
11:00 +32°C° 0 mm 2 mps 745 mmHg 53%
12:00 +34°C° 0 mm 3 mps 744 mmHg 50%
13:00 +35°C° 0 mm 3 mps 743 mmHg 46%
14:00 +36°C° 0 mm 3 mps 743 mmHg 43%
15:00 +35°C° 0 mm 3 mps 742 mmHg 46%
16:00 +34°C° 0 mm 2 mps 742 mmHg 50%
17:00 +33°C° 0 mm 1 mps 742 mmHg 54%
18:00 +31°C° 0 mm 1 mps 742 mmHg 59%
19:00 +29°C° 0 mm 1 mps 742 mmHg 64%
20:00 +27°C° 0 mm 1 mps 742 mmHg 69%
21:00 +27°C° 0 mm 1 mps 742 mmHg 70%
22:00 +26°C° 0 mm 1 mps 743 mmHg 71%
23:00 +26°C° 0 mm 1 mps 743 mmHg 72%

13 July, Monday

Time Temperature Precipitation Wind Pressure Humidity
00:00 +26°C° 0 mm 1 mps 743 mmHg 73%
01:00 +25°C° 0 mm 1 mps 743 mmHg 73%
02:00 +25°C° 0 mm 1 mps 743 mmHg 73%
03:00 +25°C° 0 mm 1 mps 743 mmHg 73%
04:00 +25°C° 0 mm 1 mps 743 mmHg 74%
05:00 +25°C° 0 mm 1 mps 743 mmHg 74%
06:00 +25°C° 0 mm 1 mps 743 mmHg 74%
07:00 +25°C° 0 mm 2 mps 744 mmHg 73%
08:00 +26°C° 0 mm 2 mps 744 mmHg 72%
09:00 +28°C° 0 mm 2 mps 744 mmHg 65%
10:00 +30°C° 0 mm 2 mps 745 mmHg 57%
11:00 +34°C° 0 mm 3 mps 745 mmHg 49%
12:00 +35°C° 0 mm 3 mps 744 mmHg 47%
13:00 +35°C° 0 mm 3 mps 744 mmHg 44%
14:00 +36°C° 0 mm 4 mps 743 mmHg 41%
15:00 +36°C° 0 mm 3 mps 743 mmHg 45%
16:00 +35°C° 0 mm 2 mps 743 mmHg 48%
17:00 +33°C° 0 mm 1 mps 742 mmHg 52%
18:00 +31°C° 0 mm 1 mps 743 mmHg 57%
19:00 +30°C° 0 mm 1 mps 743 mmHg 62%
20:00 +26°C° 0 mm 0 mps 743 mmHg 68%
21:00 +25°C° 0 mm 0 mps 743 mmHg 69%
22:00 +25°C° 0 mm 0 mps 744 mmHg 70%
23:00 +25°C° 0 mm 0 mps 744 mmHg 72%

14 July, Tuesday

Time Temperature Precipitation Wind Pressure Humidity
00:00 +24°C° 0 mm 0 mps 744 mmHg 72%
01:00 +24°C° 0 mm 0 mps 744 mmHg 73%
02:00 +24°C° 0 mm 0 mps 744 mmHg 73%
03:00 +24°C° 0.1 mm 0 mps 744 mmHg 75%
04:00 +23°C° 0.1 mm 0 mps 744 mmHg 77%
05:00 +23°C° 0.1 mm 0 mps 744 mmHg 78%
06:00 +25°C° 0.3 mm 1 mps 744 mmHg 80%
07:00 +25°C° 0.3 mm 1 mps 745 mmHg 83%
08:00 +25°C° 0.3 mm 1 mps 746 mmHg 85%
09:00 +28°C° 0 mm 1 mps 746 mmHg 73%
10:00 +31°C° 0 mm 1 mps 747 mmHg 60%
11:00 +33°C° 0 mm 0 mps 747 mmHg 48%
12:00 +35°C° 0 mm 1 mps 746 mmHg 45%
13:00 +36°C° 0 mm 1 mps 745 mmHg 42%
14:00 +37°C° 0 mm 1 mps 745 mmHg 39%
15:00 +35°C° 0 mm 1 mps 744 mmHg 43%
16:00 +34°C° 0 mm 1 mps 744 mmHg 47%
17:00 +31°C° 0 mm 0 mps 744 mmHg 50%
18:00 +31°C° 0.2 mm 1 mps 744 mmHg 59%
19:00 +29°C° 0.2 mm 2 mps 744 mmHg 67%
20:00 +27°C° 0.2 mm 2 mps 745 mmHg 75%
21:00 +26°C° 0.1 mm 2 mps 745 mmHg 81%
22:00 +25°C° 0.1 mm 2 mps 745 mmHg 87%
23:00 +24°C° 0.1 mm 1 mps 745 mmHg 93%
Show more